Weather reports worldwide

Advertisment
Altnaharra, United Kingdom (3044): temperature & dewpoint: 17.01.2019 02:00:00 - 23.01.2019 02:00:00 (GMT)Altnaharra, United Kingdom (3044): temperature -20cm & temperature -100cm: 17.01.2019 02:00:00 - 23.01.2019 02:00:00 (GMT)Altnaharra, United Kingdom (3044): wind speed & gusts: 17.01.2019 02:00:00 - 23.01.2019 02:00:00 (GMT)Altnaharra, United Kingdom (3044): wind direction: 17.01.2019 02:00:00 - 23.01.2019 02:00:00 (GMT)Altnaharra, United Kingdom (3044): reduced air pressure: 17.01.2019 02:00:00 - 23.01.2019 02:00:00 (GMT)Altnaharra, United Kingdom (3044): visibility: 17.01.2019 02:00:00 - 23.01.2019 02:00:00 (GMT)Altnaharra, United Kingdom (3044): sunshine duration: 17.01.2019 02:00:00 - 23.01.2019 02:00:00 (GMT)Altnaharra, United Kingdom (3044): precipitation: 17.01.2019 02:00:00 - 23.01.2019 02:00:00 (GMT)
Date & Time tt [°C] td [°C] tt -20cm [°C] tt -100cm [°C] ff [km/h] ff [kn] fx [km/h] fx [kn] dd ppp [hPa] vv [km] sd [min] rr [mm]
23.01.2019 02:00:00 -0,1 -0,8 - - 9 5 - - S 997,2 50 0 0,0
23.01.2019 01:00:00 -0,1 -0,9 - - 11 6 - - S 996,7 1,6 0 0,0
23.01.2019 00:00:00 0,3 -0,4 - - 4 2 - - SSW 996,2 50 - 0,0
22.01.2019 23:00:00 0,3 -0,5 - - 5 3 - - SSW 995,8 17 0 0,0
22.01.2019 22:00:00 0,5 -0,1 - - 11 6 - - S 995,2 14 0 0,0
22.01.2019 21:00:00 -1,1 -1,9 - - 9 5 - - S 994,8 50 0 0,0
22.01.2019 20:00:00 -3,0 -4,4 - - 4 2 - - SSW 994,5 50 0 0,0
22.01.2019 19:00:00 -2,9 -4,2 - - 5 3 - - SSE 994,0 50 0 0,0
22.01.2019 18:00:00 -3,7 -4,9 - - 2 1 - - WNW 993,9 50 0 0,0
22.01.2019 17:00:00 -1,1 -2,4 - - 4 2 - - S 993,6 16 0 0,0
22.01.2019 16:00:00 0,0 -1,2 - - 2 1 - - SW 993,5 45 0 0,0
22.01.2019 15:00:00 1,2 -1,1 - - 4 2 - - ESE 993,5 50 6 0,0
22.01.2019 14:00:00 2,7 -0,6 - - 5 3 - - SW 993,0 45 60 0,0
22.01.2019 13:00:00 2,0 -0,4 - - 8 4 - - WSW 993,6 28 60 0,6
22.01.2019 12:00:00 1,1 -0,1 - - 13 7 - - S 994,0 50 42 0,0
22.01.2019 11:00:00 0,8 0,4 - - 13 7 - - S 994,3 45 30 0,0
22.01.2019 10:00:00 -2,1 -2,4 - - 5 3 - - W 994,8 29 0 0,0
22.01.2019 09:00:00 -4,1 -4,6 3,9 5,7 2 1 - - NNE 995,0 45 0 0,0
22.01.2019 08:00:00 -4,9 -5,7 - - 5 3 - - WNW 994,9 35 0 0,0
22.01.2019 07:00:00 -3,1 -3,9 - - 2 1 - - SW 995,1 35 0 0,0
22.01.2019 06:00:00 0,3 -0,1 - - 4 2 - - SSW 995,4 30 0 0,0
22.01.2019 05:00:00 -0,7 -1,7 - - 5 3 - - W 995,3 23 0 0,0
22.01.2019 04:00:00 0,8 0,1 - - 5 3 - - ESE 995,4 40 0 0,2
22.01.2019 03:00:00 0,5 -0,4 - - 4 2 - - WNW 995,8 50 0 0,0
22.01.2019 02:00:00 0,9 -0,1 - - 4 2 - - W 995,9 50 0 0,6
22.01.2019 01:00:00 2,2 0,4 - - 8 4 - - SSW 995,8 35 0 0,0
22.01.2019 00:00:00 2,5 0,0 - - 11 6 - - S 996,1 30 - 0,0
21.01.2019 23:00:00 2,6 0,1 - - 13 7 - - S 996,5 35 0 0,0
21.01.2019 22:00:00 1,8 0,1 - - 11 6 - - S 996,5 50 0 0,0
21.01.2019 21:00:00 2,1 0,6 - - 9 5 - - SW 997,2 35 0 0,2
21.01.2019 20:00:00 2,7 1,2 - - 16 9 - - S 996,6 16 0 0,2
21.01.2019 19:00:00 4,2 1,2 - - 22 12 50 27 ESE 996,8 50 0 0,0
21.01.2019 18:00:00 4,3 0,4 - - 24 13 61 33 SE 997,1 50 0 0,0
21.01.2019 17:00:00 4,3 0,3 - - 26 14 52 28 SE 998,2 50 0 0,0
21.01.2019 16:00:00 5,0 0,0 - - 24 13 46 25 SE 999,6 35 0 0,0
21.01.2019 15:00:00 4,7 0,0 - - 24 13 50 27 SE 1001,7 50 0 0,0
21.01.2019 14:00:00 4,8 -0,6 - - 37 20 55 30 SE 1003,4 50 0 0,0
21.01.2019 13:00:00 4,4 -0,3 - - 21 11 48 26 SSE 1005,1 45 0 0,0
21.01.2019 12:00:00 4,3 0,1 - - 24 13 - - SSE 1007,2 50 0 0,0
21.01.2019 11:00:00 4,0 0,4 - - 18 10 - - SSE 1009,0 35 0 0,0
21.01.2019 10:00:00 3,7 0,5 - - 21 11 - - SSE 1010,7 50 0 0,0
21.01.2019 09:00:00 3,8 0,3 3,9 5,9 8 4 - - W 1012,0 50 0 0,0
21.01.2019 08:00:00 3,8 0,4 - - 13 7 - - S 1013,3 50 0 0,0
21.01.2019 07:00:00 3,5 0,7 - - 15 8 - - S 1014,5 40 0 0,0
21.01.2019 06:00:00 3,4 0,4 - - 24 13 - - S 1015,1 50 0 0,0
21.01.2019 05:00:00 3,0 0,2 - - 21 11 - - S 1016,7 50 0 0,0
21.01.2019 04:00:00 2,6 0,3 - - 18 10 - - S 1017,8 45 0 0,0
21.01.2019 03:00:00 2,9 0,3 - - 16 9 - - S 1018,8 50 0 0,0
21.01.2019 02:00:00 2,2 0,8 - - 16 9 - - S 1019,4 17 0 0,4
21.01.2019 01:00:00 1,9 0,6 - - 16 9 - - S 1020,3 40 0 0,4
21.01.2019 00:00:00 2,7 0,7 - - 15 8 - - S 1020,7 40 - 0,6
20.01.2019 23:00:00 2,0 0,6 - - 8 4 - - WSW 1020,9 2,9 0 0,6
20.01.2019 22:00:00 2,6 1,1 - - 11 6 - - SW 1020,9 45 0 0,4
20.01.2019 21:00:00 2,2 0,5 - - 13 7 - - SSW 1020,8 40 0 0,0
20.01.2019 20:00:00 2,2 1,1 - - 9 5 - - SSW 1020,6 - 0 0,0
20.01.2019 19:00:00 1,4 0,6 - - 11 6 - - WSW 1020,4 - 0 0,6
20.01.2019 18:00:00 1,3 0,3 - - 5 3 - - SSW 1019,9 - 0 0,4
20.01.2019 17:00:00 1,6 -0,3 - - 5 3 - - SSW 1019,6 - 0 0,0
20.01.2019 16:00:00 1,5 0,1 - - 8 4 - - S 1019,2 - 0 0,2
20.01.2019 15:00:00 2,7 0,8 - - 5 3 - - SW 1018,2 - 30 0,0
20.01.2019 14:00:00 2,3 1,4 - - 8 4 - - WSW 1018,1 - 30 0,2
20.01.2019 13:00:00 1,5 0,7 - - 18 10 52 28 W 1017,8 - 24 0,4
20.01.2019 12:00:00 1,7 1,0 - - 9 5 - - W 1017,0 - 0 2,0
20.01.2019 11:00:00 1,5 1,0 - - 9 5 - - W 1016,2 - 0 0,0
20.01.2019 10:00:00 1,7 1,3 - - 5 3 - - SW 1015,1 - 0 0,0
20.01.2019 09:00:00 2,0 1,7 4,2 6,0 5 3 - - WSW 1014,2 - 0 0,0
20.01.2019 08:00:00 2,1 1,9 - - 11 6 - - SW 1013,0 - 0 0,0
20.01.2019 07:00:00 -0,2 -0,3 - - 8 4 - - W 1012,3 - 0 0,0
20.01.2019 06:00:00 -2,9 -3,1 - - 2 1 - - W 1012,2 - 0 0,0
20.01.2019 05:00:00 -3,5 -3,8 - - 2 1 - - N 1012,3 - 0 0,0
20.01.2019 04:00:00 -4,2 -4,6 - - 2 1 - - WSW 1012,3 - 0 0,0
20.01.2019 03:00:00 -4,9 -5,3 - - 2 1 - - E 1012,3 - 0 0,0
20.01.2019 02:00:00 -5,8 -6,2 - - 4 2 - - N 1012,2 - 0 0,0
20.01.2019 01:00:00 -4,6 -4,9 - - 2 1 - - WNW 1012,2 - 0 0,0
20.01.2019 00:00:00 -4,6 -5,0 - - 2 1 - - W 1012,0 0,1 - 0,0
19.01.2019 23:00:00 -5,1 -5,5 - - 0 0 - - N 1011,7 0,1 0 0,0
19.01.2019 22:00:00 -6,0 -6,5 - - 2 1 - - NNW 1011,5 0,1 0 0,0
19.01.2019 21:00:00 -6,5 -7,0 - - 2 1 - - W 1011,2 9 0 0,0
19.01.2019 20:00:00 -7,2 -7,8 - - 2 1 - - E 1010,8 17 0 0,0
19.01.2019 19:00:00 -6,7 -7,3 - - 2 1 - - ESE 1010,6 20 0 0,0
19.01.2019 18:00:00 -6,7 -7,5 - - 5 3 - - ESE 1010,5 30 0 0,0
19.01.2019 17:00:00 -6,0 -6,8 - - 2 1 - - ESE 1010,0 30 0 0,0
19.01.2019 16:00:00 -4,6 -5,9 - - 4 2 - - WSW 1009,7 50 18 0,0
19.01.2019 15:00:00 -2,6 -4,4 - - 5 3 - - W 1009,4 50 60 0,0
19.01.2019 14:00:00 -0,7 -3,0 - - 0 0 - - N 1009,4 50 60 0,0
19.01.2019 13:00:00 -3,0 -4,4 - - 4 2 - - WNW 1009,6 45 60 0,0
19.01.2019 12:00:00 -3,9 -5,1 - - 2 1 - - NNW 1009,5 35 60 0,0
19.01.2019 11:00:00 -5,1 -5,6 - - 2 1 - - W 1009,9 40 42 0,0
19.01.2019 10:00:00 -9,0 -9,8 - - 4 2 - - W 1009,8 50 0 0,0
19.01.2019 09:00:00 -9,0 -9,7 4,7 6,2 5 3 - - WNW 1009,3 50 0 0,0
19.01.2019 08:00:00 -9,3 -10,0 - - 4 2 - - WNW 1008,9 50 0 0,0
19.01.2019 07:00:00 -8,8 -9,6 - - 4 2 - - W 1008,4 50 0 0,0
19.01.2019 06:00:00 -8,4 -9,2 - - 5 3 - - WNW 1008,2 50 0 0,0
19.01.2019 05:00:00 -7,5 -8,4 - - 4 2 - - S 1007,9 50 0 0,0
19.01.2019 04:00:00 -7,4 -8,3 - - 4 2 - - SE 1008,0 45 0 0,0
19.01.2019 03:00:00 -6,8 -7,8 - - 4 2 - - E 1008,0 50 0 0,0
19.01.2019 02:00:00 -6,9 -8,2 - - 2 1 - - W 1008,1 40 0 0,0
19.01.2019 01:00:00 -6,2 -7,3 - - 8 4 - - NNW 1008,1 50 0 0,0
19.01.2019 00:00:00 -5,5 -6,4 - - 2 1 - - W 1008,4 45 - 0,0
18.01.2019 23:00:00 -6,4 -7,6 - - 2 1 - - W 1008,5 50 0 0,0
18.01.2019 22:00:00 -6,1 -7,6 - - 4 2 - - WNW 1008,4 25 0 0,0
18.01.2019 21:00:00 -5,4 -7,4 - - 5 3 - - WNW 1008,6 50 0 0,0
18.01.2019 20:00:00 -3,2 -5,6 - - 11 6 - - NW 1008,4 45 0 0,0
18.01.2019 19:00:00 -1,7 -3,9 - - 15 8 - - NW 1008,3 45 0 0,0
18.01.2019 18:00:00 -1,4 -3,4 - - 16 9 - - NNW 1008,5 35 0 0,0
18.01.2019 17:00:00 -1,7 -3,3 - - 11 6 - - NNW 1008,6 45 0 0,0
18.01.2019 16:00:00 -2,9 -5,5 - - 8 4 - - WNW 1009,0 50 0 0,0
18.01.2019 15:00:00 -0,8 -3,1 - - 9 5 - - W 1009,3 45 6 0,0
18.01.2019 14:00:00 -1,6 -3,6 - - 11 6 - - WNW 1010,0 35 0 0,0
18.01.2019 13:00:00 -0,9 -3,6 - - 9 5 - - NW 1010,6 50 18 0,0
18.01.2019 12:00:00 -0,6 -2,9 - - 8 4 - - WNW 1010,9 50 60 0,0
18.01.2019 11:00:00 -1,9 -4,1 - - 8 4 - - NNW 1011,5 40 6 0,0
18.01.2019 10:00:00 -2,8 -4,3 - - 8 4 - - NW 1011,6 50 0 0,0
18.01.2019 09:00:00 -3,9 -4,8 5,0 6,2 11 6 - - NNW 1011,9 30 0 0,0
18.01.2019 08:00:00 -4,9 -5,5 - - 5 3 - - WNW 1012,2 45 0 0,0
18.01.2019 07:00:00 -5,0 -5,5 - - 4 2 - - WNW 1012,4 26 0 0,0
18.01.2019 06:00:00 -5,8 -6,4 - - 2 1 - - S 1012,9 45 0 0,0
18.01.2019 05:00:00 -5,7 -6,3 - - 5 3 - - WNW 1013,1 45 0 0,0
18.01.2019 04:00:00 -5,6 -6,1 - - 4 2 - - WNW 1013,4 45 0 0,0
18.01.2019 03:00:00 -5,8 -6,2 - - 8 4 - - WSW 1013,9 40 0 0,0
18.01.2019 02:00:00 -5,6 -6,1 - - 2 1 - - NNE 1014,2 29 0 0,0
18.01.2019 01:00:00 -6,0 -6,6 - - 0 0 - - N 1015,0 45 0 0,0
18.01.2019 00:00:00 -5,7 -6,3 - - 2 1 - - WNW 1015,2 40 - 0,0
17.01.2019 23:00:00 -5,4 -6,1 - - 2 1 - - WNW 1015,6 35 0 0,0
17.01.2019 22:00:00 -4,2 -4,8 - - 0 0 - - N 1015,9 30 0 0,0
17.01.2019 21:00:00 -3,2 -3,9 - - 5 3 - - NW 1016,2 35 0 0,0
17.01.2019 20:00:00 -2,3 -3,0 - - 4 2 - - WNW 1016,1 40 0 0,0
17.01.2019 19:00:00 -1,4 -2,1 - - 8 4 - - NNW 1016,2 50 0 0,0
17.01.2019 18:00:00 -1,9 -2,6 - - 2 1 - - NNW 1015,9 50 0 0,0
17.01.2019 17:00:00 -0,7 -1,1 - - 8 4 - - S 1015,9 40 0 0,0
17.01.2019 16:00:00 0,1 -0,4 - - 8 4 - - S 1015,7 28 0 0,2
17.01.2019 15:00:00 0,6 -0,2 - - 8 4 - - NW 1015,9 50 0 0,4
17.01.2019 14:00:00 0,4 -0,3 - - 13 7 - - W 1015,6 1,4 18 0,6
17.01.2019 13:00:00 2,9 -1,0 - - 5 3 - - S 1014,7 35 36 0,0
17.01.2019 12:00:00 0,7 -1,6 - - 5 3 - - NE 1014,7 25 12 0,0
17.01.2019 11:00:00 0,1 -2,1 - - 4 2 - - SE 1014,3 29 18 0,0
17.01.2019 10:00:00 1,4 -0,1 - - 15 8 - - NW 1013,5 30 0 0,0
17.01.2019 09:00:00 -0,3 -2,7 5,5 6,4 11 6 - - W 1012,7 35 0 0,0
17.01.2019 08:00:00 0,2 -2,0 - - 8 4 - - WNW 1012,1 22 0 0,0
17.01.2019 07:00:00 1,9 -2,3 - - 26 14 50 27 NW 1010,9 28 0 0,0
17.01.2019 06:00:00 1,3 -1,1 - - 24 13 - - WNW 1010,0 18 0 0,0
17.01.2019 05:00:00 0,8 -2,1 - - 37 20 61 33 NW 1009,1 40 0 0,0
17.01.2019 04:00:00 0,5 -0,6 - - 16 9 52 28 W 1007,7 25 0 0,0
17.01.2019 03:00:00 0,8 -0,3 - - 24 13 46 25 NW 1006,8 2,2 0 0,0
17.01.2019 02:00:00 1,1 -0,5 - - 37 20 68 37 WNW 1005,4 35 0 0,0

tt = temperature
td = dewpoint
tt -20cm = temperature -20cm
tt -100cm = temperature -100cm
ff = wind speed
fx = gusts
dd = wind direction
ppp = reduced air pressure
vv = visibility
sd = sunshine duration
rr = precipitation

Next stations